This is the latest recevied weather packets stored in our database for station/object KB1ZFK. If no packets are shown the sender has not sent any weather packets the latest 10 day(s).
| Time | Temp. | Humidity | Pressure | Rain* | Wind** | Luminosity | Snow |
|---|---|---|---|---|---|---|---|
| 1778094215 | 16.11° C | 93% | 1005.5 hPa | 0 mm | - | 64 W/m² | - |
| 1778093912 | 15.56° C | 93% | 1005.6 hPa | 0 mm | - | 65 W/m² | - |
| 1778093609 | 15.56° C | 93% | 1005.9 hPa | 0 mm | - | 54 W/m² | - |
| 1778093305 | 16.11° C | 93% | 1005.8 hPa | 0 mm | - | 74 W/m² | - |
| 1778093003 | 16.11° C | 94% | 1006.4 hPa | 0 mm | - | 84 W/m² | - |
| 1778092701 | 16.11° C | 93% | 1006.2 hPa | 0 mm | - | 71 W/m² | - |
| 1778092395 | 16.11° C | 93% | 1006.3 hPa | 0 mm | - | 82 W/m² | - |
| 1778092093 | 15.56° C | 93% | 1006.5 hPa | 0 mm | - | 56 W/m² | - |
| 1778091790 | 16.11° C | 93% | 1006.6 hPa | 1.27 mm | - | 52 W/m² | - |
| 1778091488 | 16.11° C | 93% | 1007 hPa | 1.27 mm | - | 70 W/m² | - |
| 1778091185 | 16.11° C | 93% | 1006.7 hPa | 0 mm | - | 49 W/m² | - |
| 1778090882 | 16.11° C | 92% | 1006.7 hPa | 1.78 mm | - | 69 W/m² | - |
| 1778090578 | 16.11° C | 92% | 1006.8 hPa | 3.05 mm | - | 52 W/m² | - |
| 1778090274 | 16.11° C | 92% | 1007 hPa | 3.05 mm | - | 61 W/m² | - |
| 1778089971 | 16.11° C | 91% | 1007 hPa | 1.78 mm | - | 70 W/m² | - |
| 1778089669 | 16.11° C | 90% | 1007 hPa | 1.27 mm | - | 66 W/m² | - |
| 1778089366 | 16.67° C | 89% | 1007.1 hPa | 1.27 mm | - | 59 W/m² | - |
| 1778089063 | 16.67° C | 88% | 1007.1 hPa | 0 mm | - | 62 W/m² | - |
| 1778088760 | 17.22° C | 85% | 1007.1 hPa | 0 mm | - | 71 W/m² | - |
| 1778088457 | 17.78° C | 81% | 1007.2 hPa | 0 mm | - | 42 W/m² | - |
| 1778088153 | 18.33° C | 79% | 1007 hPa | 0 mm | - | 52 W/m² | - |
| 1778087851 | 18.33° C | 75% | 1006.9 hPa | 0 mm | - | 75 W/m² | - |
| 1778087548 | 18.89° C | 73% | 1007 hPa | 0 mm | - | 55 W/m² | - |
| 1778087246 | 19.44° C | 71% | 1006.9 hPa | 0 mm | - | 48 W/m² | - |
| 1778086942 | 19.44° C | 70% | 1006.7 hPa | 0 mm | - | 66 W/m² | - |
* Rain latest hour (hover to see other rain measurements)
** Current wind speed in m/s (hover to see current wind gust speed)